TIMESTAMP,CO2_1_1_1,H2O_1_1_1,TAU_1_1_1,TAU_SSITC_TEST_1_1_1,H_1_1_1,H_SSITC_TEST_1_1_1,LE_1_1_1,LE_SSITC_TEST_1_1_1,FC_1_1_1,FC_SSITC_TEST_1_1_1,WD_0_0_1,WS_0_0_1,WS_MAX_0_0_1,U_SIGMA_0_0_1,V_SIGMA_0_0_1,W_SIGMA_0_0_1,USTAR_0_0_1,MO_LENGTH_0_0_1,ZL_0_0_1,FETCH_MAX_0_0_1,FETCH_70_0_0_1,FETCH_80_0_0_1,FETCH_90_0_0_1,PA_0_0_1,RH_0_0_1,TA_0_0_1,VPD_0_0_1,T_SONIC_0_0_1,T_SONIC_SIGMA_0_0_1
[yyyymmddHHMMSS],[mmolCO2 mol-1],[mmolH2O mol-1],[kg m-1 s-2],[#],[W m-2],[#],[W m-2],[#],[umolCO2 m-2 s-1],[#],[Decimal degrees],[m s-1],[m s-1],[m s-1],[m s-1],[m s-1],[m s-1],[m],[#],[m],[m],[m],[m],[kPa],[%],[deg C],[hPa],[deg C],[deg C]
20220310003000,420.39276523349014,2.0053631072802229,0.60292456135250205,0,-19.183446122409421,0,6.5992965200408165,0,0.58534128766832716,0,253.87808442985499,3.3390455472874261,9.2955458902671122,1.5924038291575988,1.1001274586641270,0.85033477399690682,0.69621682337990243,1462.8868495980171,1.2988017497881645E-002,106.70347388912185,195.08798159685361,233.47048780569207,292.27734611679654,93.747933479748042,70.024137931034488,-10.778965517241375,0.80499857989811374,-11.410439084790141,0.15259419211893735
20220310010000,420.33194650869382,1.8926889944560230,0.38524618803700761,0,-26.763995227463578,0,5.5500849925850160,0,0.42740733507021866,0,256.49361598422843,2.4703915164888071,6.5707907721047007,1.0251258812670918,0.94992822103414487,0.69681606742946478,0.55587365113962883,533.86504264759606,3.5589518852504991E-002,104.50600491370429,191.07030746300683,228.66235799576918,286.25813814821208,93.796140804253483,68.620666666666665,-11.243999999999971,0.81202515967826971,-11.858826885647204,0.11419490684017941
20220310013000,420.36356386429514,1.8292895242902625,0.26067951990227883,0,-21.582017665599853,0,2.6469168759186226,0,0.30075613988048006,0,263.17215310062602,2.5359649095798189,5.9744024749038722,0.92114932814211792,0.77768021323750225,0.61975270201220667,0.45687328546915829,367.69807321081169,5.1672829922899170E-002,98.110789002152416,179.37781312718812,214.66942858051652,268.74065098172497,93.840664218967007,68.013666666666666,-11.552999999999997,0.80752926442037654,-12.174225129021579,0.15623072864312201
20220310020000,420.35755620663139,1.7915164321588009,0.40144411563697208,0,-12.324924263391321,1,7.7582944425161475,0,0.66217578116622822,0,265.31004368791241,2.9136360074710783,7.0988439785288504,1.1631104309781728,0.81164831931060599,0.65469848103361827,0.56629870382543046,1226.5577701770510,1.5490505593762119E-002,111.49574332160428,203.84977853537492,243.95612094693925,305.40411453914504,93.884083592013894,69.303333333333327,-12.041333333333341,0.74518883828042304,-12.651927157084174,0.14513260450340779
20220310023000,420.30376671345931,1.6957254112586797,0.38348507904730667,0,-31.825448371163120,0,6.1506583321876267,0,0.60758210472919894,0,259.80626985673189,2.8413225572364480,6.7270682098129670,1.0274797175732595,0.88294288527288645,0.65843008369687572,0.55288154372796194,442.12943014619367,4.2973841378796014E-002,108.88118564390909,199.06953323014579,238.23538820826650,298.24243599716880,93.914336236762168,68.191999999999993,-12.518666666666661,0.74303083286605642,-13.132699537489088,0.18659366781969455
20220310030000,420.33295441755263,1.5904469734027320,0.51575848796008428,0,-33.104114848699467,0,10.682734220615799,1,0.52833316689845478,0,248.64385072172246,3.1055074066993518,8.4606854651196652,1.2248231077933340,0.98225035827138829,0.74080191464600986,0.64037709561326894,660.69943453060466,2.8757403150342621E-002,111.44019285227310,203.74821456052399,243.83457480884385,305.25195319743898,93.962597575303818,66.685666666666663,-13.028333333333308,0.74677422040910080,-13.650850758022671,0.16999138030780003
20220310033000,420.45733152428585,1.4740705420958400,0.43098962730364082,0,-37.964153305544919,0,4.3939147689490881,0,0.49095753335476522,0,250.48990093405598,3.2578142373157419,8.2354349826967006,1.2254256804570598,1.1235998771994939,0.79579965109234829,0.58485108047262002,438.99614628560533,4.3280562166117149E-002,97.869673965133870,178.93697793982133,214.14186145211636,268.08019954036081,94.001609534288193,63.668333333333337,-13.388666666666666,0.79091875867960915,-14.045856736924861,0.17954359133372594
20220310040000,420.55035520965777,1.4284875046191929,0.56696073677430714,0,-43.683093580797149,0,4.9076440370142045,0,0.50044868849953317,0,247.65834152627014,3.4336286561790357,9.5889466113656905,1.3469046058460716,1.0464671151265850,0.76932361811832595,0.67020587288772382,574.21881713472271,3.3088431505619291E-002,112.13320382072408,205.01525963536452,245.35090415560040,307.15021760539224,94.023317519282742,63.706666666666671,-13.778666666666652,0.76536830118930343,-14.438086781112588,0.16632946655512823
20220310043000,420.61523535371970,1.3971428350675812,0.49564135128241182,0,-47.742645131257568,0,6.5169380512377026,0,0.69661411424632980,0,246.99486445175012,3.4969156414597342,9.1614924643671447,1.2837407077304628,1.0511008295775555,0.75515975748702902,0.62612873462900054,428.48979568284756,4.4341779410922315E-002,107.78410931560153,197.06372780745065,235.83495140715351,295.23737396836839,94.051472868272569,64.080666666666673,-14.117999999999995,0.73675676873661788,-14.781990414937354,0.15048094427003808
20220310050000,420.64400056602562,1.3607677497029584,0.46883517820028137,0,-38.562075268593098,0,4.2908329879837224,0,0.49268355087825805,0,250.52836696911902,3.4708105666271338,8.7573296118442112,1.2878556574313649,1.0266325427288432,0.74474046026310503,0.60859257725984095,487.22517658861159,3.8996342785550760E-002,106.53989432059829,194.78890597456498,233.11257067079237,291.82927633589441,94.068807590494799,63.782333333333334,-14.380666666666684,0.72705320060207701,-15.065188072204592,0.14012781180122724
20220310053000,420.64308002977674,1.3190517001690369,0.69185353749496292,0,-49.586731614007320,0,7.4671112332580725,0,0.74806866649981163,0,252.42383548923158,3.9798303112048661,9.6406583835728625,1.4603277881796100,1.1105181939714537,0.85199860935988481,0.73888923617330249,678.17288768934179,2.8016454719586994E-002,111.72934764945310,204.27688175096162,244.46725441231320,306.04399298448971,94.087324963975703,63.049666666666667,-14.616666666666674,0.72752007914605354,-15.312513626946384,0.15518248615907249
20220310060000,420.71586453051412,1.2614065971307009,0.74530097282720609,0,-31.589148264349845,0,8.1736511472302738,0,0.54001201121840148,0,256.89590267819494,4.2338122825707361,10.334467179173028,1.5972923429526431,1.2354174709437591,0.92474298205967542,0.76650860492161887,1188.4354261475380,1.5987406283899559E-002,107.75853842970893,197.01697607262324,235.77900152112477,295.16733135031541,94.086997041449649,61.590000000000003,-14.875000000000000,0.74034694360657527,-15.608704572889565,0.15564389837577747
20220310063000,420.95925546431209,1.2361363371160938,0.44468955752901551,0,-41.174701492749065,1,2.9417599190998143,0,0.53711696513893503,1,254.39633079721173,3.6313444943662434,8.9563062382422984,1.3934272776040730,0.99499228174429555,0.77074623861427716,0.59137527324048011,418.83596837893657,4.5363821243761926E-002,101.30159840656178,185.21163037491263,221.65101784832751,277.48077227950364,94.125018871488223,62.962666666666664,-15.382000000000005,0.68461202840304980,-16.126687897174634,0.17511300653662956
20220310070000,421.18373359647779,1.2183447829700953,0.62045810963708281,0,-36.110685876390171,0,4.1044581907345394,0,0.50188469019700432,0,252.87730610467671,3.5250642578482734,8.0359437949984702,1.3005976088847493,1.0393473404499991,0.77636995892103478,0.69776992391976445,784.68359186244390,2.4213581368387686E-002,114.96607876213835,210.19465852739211,251.54932179242243,314.90990095569924,94.158639664660200,64.567999999999998,-15.855999999999995,0.62968767916131885,-16.577947146050519,0.19870464604217561
20220310073000,421.37505880752690,1.1845112685291808,0.49710842302749325,0,-36.051996635553287,0,3.5122091282255878,0,0.43409947197676546,0,252.28183234102272,3.0352102925834132,7.8504200063738905,1.2088406275869459,0.96110223018887975,0.70331949146692851,0.62386933498164887,561.83794068076372,3.3817580879244677E-002,113.76474259495545,207.99823286726271,248.92076125218861,311.61925507566724,94.179623244162542,65.552333333333337,-16.372999999999990,0.58638692725329378,-17.088312770022355,0.16318188625778959
20220310080000,421.55264824495117,1.1588843464270213,0.45745001206873065,0,-31.792446388596755,0,3.1974906564328451,0,0.39396393661976342,1,249.93390540173201,2.8643333876271493,7.3854345314618879,1.1764322460081922,0.83683833921412043,0.66729720094720346,0.59792588368444710,560.88603085055320,3.3874974513427497E-002,114.68783131056803,209.68593344344848,250.94050779714127,314.14773807810406,94.179481961154508,66.659666666666666,-16.834666666666635,0.54603398403209502,-17.544599490695475,0.17141760552255661
20220310083000,421.75586829660938,1.1458670006182217,0.20974066435277869,0,-27.416211518640019,0,0.47958284294704939,0,0.28677571740137758,0,241.52068822311136,2.9597464190377645,6.2007431241248705,0.83327657616647233,0.73550178615859818,0.51437626513720425,0.40445809381074754,201.33774587969287,9.4368792682089711E-002,103.30681870229486,188.87781260772459,226.03850162499586,282.97338133012755,94.196845176432305,68.602999999999994,-17.308999999999997,0.49411961544651578,-18.016522711012101,0.17615542258859088
20220310090000,422.06918729283740,1.1409180026056081,0.16451039387706071,0,-21.975510322698184,0,0.13153125245241862,1,0.26241441444398161,1,237.65054289948134,2.6283367577392496,5.1939771919609257,0.72249881414898665,0.58261258618954137,0.43965179764237949,0.35783374627978198,173.97578350073039,0.10921060171526822,106.19714795009048,194.16225629592847,232.36263105402560,290.89044092677466,94.218977616870632,71.063999999999993,-17.775333333333322,0.43782257027610727,-18.482600294397827,0.17345971151313289
20220310093000,422.39445568079952,1.1286526061821662,0.14474080738805165,0,-29.833822449903188,0,5.4284843813546993E-002,1,0.46713642465020661,0,234.69802115546474,2.5384010221158286,5.3551515935205591,0.67288878143617281,0.48841875352351671,0.37774692441984714,0.33530677408507076,105.44496000034772,0.18018879233239166,113.82771350233649,208.11336376949612,249.05854353731925,311.79174214681007,94.226677546006954,73.299999999999997,-18.267666666666656,0.38748771029594720,-19.008265601264100,0.24241861860887989
20220310100000,422.98327954176472,1.1019035896621390,9.0723844869894890E-002,0,-19.313022532818792,0,-0.19830527438383758,0,0.20121372221370964,0,220.80284035321085,2.4887481916285545,4.9297062000045022,0.54667554497822646,0.47848707811991764,0.34779567657183030,0.26506812144272723,80.475544735170345,0.23609656899528139,100.75846828018000,184.21861528141747,220.46263240100751,275.99305471840620,94.237791681857630,76.158000000000001,-18.996999999999986,0.32517139255136912,-19.748467116461740,0.24826772203432909
20220310103000,423.53533532981447,1.0848584344791261,9.7802817307368006E-002,0,-21.032409259518815,0,-0.22283329657951215,2,5.4298830546106500E-002,2,212.99702422562711,2.5522746799730549,4.8343073038431497,0.59215215731186999,0.62622982803177074,0.37547216539722839,0.27493192924867133,82.464782593078368,0.23040138350640305,97.582703435599797,178.41230428727692,213.51396109354133,267.29414280079192,94.250547050781265,78.183333333333337,-19.484000000000009,0.28539584257596645,-20.300194862789482,0.23729720095178219
20220310110000,423.94929596536423,1.0525838445301121,9.4746631775004017E-002,0,-26.861340780380889,0,-0.68204572898170035,1,0.40700150406060043,0,213.00274409090500,2.8653269212238728,5.0564529982704975,0.61369854901892129,0.67871235104927163,0.37804386499918485,0.27029357097353762,61.365536276238387,0.30962004331667631,95.739182965107204,175.04176090651876,209.48028151556500,262.24445462299690,94.270512609523465,79.355333333333334,-20.005666666666656,0.25821460485572573,-20.753464463925894,0.20035930560248705
20220310113000,424.13909555784301,1.0349643740015346,0.11475178646844282,0,-29.029505058715024,0,-0.45401953459648009,0,0.46984604025249049,0,223.29284395450068,2.9256016468400521,5.1718959806640656,0.63706366385195279,0.54914643544241193,0.40578716644438684,0.29732721892370206,75.579156041464771,0.25139206356810978,97.634653321497439,178.50728524726412,213.62762904417036,267.43644158664978,94.268672405815977,79.623999999999995,-20.240666666666669,0.24973775978543969,-21.069635924445208,0.16734968459640168
20220310120000,424.06355562034344,1.0257379285798056,0.13736856927658714,0,-44.372147055764188,0,-1.0717296631576261,0,0.69496587131311938,0,222.54293680642536,3.0744072145640597,5.6040338206621048,0.66342584930856396,0.60345892776550525,0.41233751587535722,0.32530258100991299,64.753163557335967,0.29342195741797800,103.58160279816180,189.38020557286183,226.63973769131144,283.72605753988756,94.260124270616316,79.146000000000001,-20.275666666666666,0.25482457021737887,-21.084999292161712,0.21327908279306823
20220310123000,423.97123125258105,1.0174234678355194,0.11820306755071026,0,-33.074942303104287,0,-0.51199628810140629,0,0.39204853129340922,0,223.22838605422362,2.8109757792997687,5.0808567231946640,0.68372320749447935,0.59482654971502624,0.40355793124299882,0.30178700332845576,69.365233300995740,0.27391243560810247,99.240882203665763,181.44398392429505,217.14210731726865,271.83615134140564,94.269526961588554,78.003000000000000,-20.200333333333333,0.27054636718429081,-20.994743818918835,0.24807280305859605
20220310130000,423.57725156779657,0.99799214584867690,8.4468623352934924E-002,0,-20.841359896231960,0,-7.5638096025483700E-002,2,0.40320692530685370,0,205.67078766984619,2.6168635289527362,4.7402001072096844,0.61593649206077561,0.73533423544336285,0.36343811851043906,0.25507694356329513,66.472197884075442,0.28583378622646349,94.329489254941350,172.46439120558651,206.39582825295577,258.38308515274929,94.273922714596296,76.909999999999997,-20.259666666666675,0.28253763308359253,-20.994022978939256,0.25183243100971769
20220310133000,423.39723218965821,1.0000404390116160,0.16923861460766151,0,-10.494017663469437,1,1.4614557391288261E-002,2,0.82700198897410604,0,192.52799742769133,2.5200905574676002,5.7062845885558193,0.82149692351678372,0.74066715440405140,0.50672532321258790,0.36105021052307651,374.46378495255578,5.0739219020625136E-002,95.475269988981992,174.55924381543522,208.90283179412265,261.52155609442775,94.303154700520835,76.616000000000000,-20.187999999999988,0.28791188347893792,-20.863045014275457,0.28639482624000145
20220310140000,422.72980486224083,1.0553529617989879,0.29410856621205039,0,46.429445597144650,0,2.2973712263633770,1,0.63386593868833485,0,206.54808777242491,1.9566151141086821,6.4744245892922896,0.98653629812485488,0.82034031344855307,0.59091914181855110,0.47716814301739913,-195.36775918580284,-9.7252484643232315E-002,105.52846138530160,192.93968398885298,230.89952425178035,289.05880482893275,94.296585186197916,72.548999999999992,-18.926666666666677,0.37664908563190053,-19.581543879191116,0.43394219531548700
20220310143000,422.20548863378798,1.0966289393528623,0.38562815466808587,0,57.480414302886267,0,4.3902616917920945,0,1.4189147585396764,1,197.21480476428627,2.4959499645628198,7.4401182872714813,1.1848201058839374,0.94513131546198714,0.70598869072937209,0.54778674139765671,-238.70706385655106,-7.9595466062193643E-002,102.21294878983109,186.87786953582579,223.64508056052082,279.97710217108022,94.270509687595506,67.903333333333336,-17.699000000000012,0.48878838223572657,-18.370737919990546,0.40372022851606421
20220310150000,421.43231096922074,1.1527713607592962,0.59640853767246982,0,83.031029078758166,0,2.7495457670891672,1,0.37942694690648882,0,210.48145551770705,3.5679180696438806,8.9464513394158640,1.5472135272080516,1.2348645295910414,0.88578961533164124,0.68290133192625158,-320.17323699642327,-5.9342873808694553E-002,101.68966111770483,185.92113277713591,222.50011101434677,278.54373616629925,94.269068670151242,64.320333333333338,-16.459666666666692,0.60297787390321911,-17.167594811888847,0.36279844204108624
20220310153000,421.06734101386780,1.2736262904076951,0.89779353925668337,0,176.34206112431502,0,13.409516712602734,0,0.59720205656575853,1,218.13076679084634,3.1147257614198751,8.2788199762820707,1.4972870622219359,1.4246855495309063,0.98672732721689249,0.83962281984389464,-280.19905606277496,-6.7808936500283204E-002,110.04354229451255,201.19469190208878,240.77866036548392,301.42631094235202,94.271577398003473,64.998333333333335,-15.386666666666656,0.64673411779932755,-16.086173177931073,0.41939458873944169
20220310160000,420.50944335609137,1.3088599167273656,0.97276533376668750,0,186.54191080356668,0,22.053029827350976,0,0.82333856330351685,0,217.58855880087768,3.8303823214583645,10.752246058357407,1.7275184503951244,1.5929675076323864,1.1410244282694717,0.87571648756874521,-300.49209863607865,-6.3229615974064624E-002,101.32340293657174,185.25149600996903,221.69872683166474,277.54049826528791,94.254727074435763,61.615333333333332,-14.409333333333336,0.76874403430715665,-15.221521984524202,0.37938104829463465
20220310163000,420.39528531594931,1.2523466283596021,0.96696936727645322,0,188.77046521518261,0,17.841311536982495,0,0.21227609018162508,0,229.29562384190322,4.9001791009817843,12.712661877413824,1.9839617889587964,1.7673337106328380,1.2363855760166957,0.87389870710975104,-295.07933830642139,-6.4389462539290676E-002,94.863825343073046,173.44132799244588,207.56497207368952,259.84671448065524,94.246630121310773,56.794666666666664,-13.954666666666640,0.89812475256620017,-14.884639307657892,0.36212532848825651
20220310170000,420.04941812933924,1.3296445130999219,1.1827616121657798,0,345.96933770184899,1,34.179986261097646,0,-2.4376932740442228,1,226.68892347258583,4.2028706236722444,10.592537223359852,1.8768627196480983,1.6694526915601835,1.2042555827964370,0.96789272746106325,-218.70962201056986,-8.6873178350981572E-002,105.13365099160092,192.21784467085138,230.03566694846671,287.97735799422077,94.224577791015633,57.047666666666665,-13.277333333333331,0.94355039467340396,-14.211341576470318,0.66985487932161059
20220310173000,420.30193945357200,1.3266233806551486,1.2065752634474500,0,304.84240308016268,0,25.489635265438427,0,-1.2140050770973501,2,220.58558449392660,4.6439911988789140,10.773669654948669,1.7584110720077692,1.8057853422689372,1.2833720999639031,0.97851146629843955,-256.44915853642976,-7.4088759379964841E-002,100.79188332408944,184.27970863886557,220.53574554641168,276.08458370053074,94.210628689670131,54.856333333333332,-12.824333333333357,1.0288074095504669,-13.839905076768673,0.45910119679026901
20220310180000,420.13861661623201,1.3630513106544651,0.68344842062867051,0,226.38635459410392,0,14.755785023104396,0,-1.0525251330913792,1,225.26023219328397,3.9018264925278778,9.9826379258730267,1.7525632121190895,1.5651454708553760,1.0865781030644344,0.73665823946370057,-147.33062391647070,-0.12896164758504028,91.752727109506978,167.75324818759694,200.75779330313833,251.32493442914330,94.199535194227451,55.834000000000003,-12.709333333333348,1.0159369820079394,-13.630695220947189,0.41907416392630137
20220310183000,419.70292997750306,1.3948902805591166,1.0530778323445125,0,305.83439260784331,0,26.979384879331022,0,-0.13622388864963839,2,217.81891956557237,4.1887841409251712,11.822237631762468,2.0847191488500947,1.8361640386070219,1.2113697857159089,0.91647852554280251,-209.92286997703272,-9.0509433307951415E-002,100.16854020181887,183.14003860626278,219.17185159317395,274.37715031662128,94.147610360407299,52.564333333333330,-11.680000000000007,1.1854402707964258,-12.771974952910966,0.49589095048889964
20220310190000,419.56890337302002,1.3691057541099159,0.74793632180320646,0,226.50546001145335,0,18.487263841361127,0,0.48468493125473938,1,226.51279142904846,3.9471922941637692,10.550971465136602,1.7137926508254564,1.8636721607274407,1.0706159558893331,0.77301571231303090,-170.03048358117147,-0.11174466836665510,96.493617392625325,176.42110765454149,211.13100728287313,264.31096740142124,94.105734692831930,50.246666666666670,-11.355333333333306,1.2760993603535593,-12.433722371593433,0.48709916265744807
20220310193000,419.54087014216617,1.4034434742874888,0.99449155431248937,0,297.67684964837633,0,24.015364723861087,0,0.42576571564380944,0,225.88038035845841,3.8232633539778074,11.724350326228000,1.9273058880671627,1.5934105697219811,1.1532896670779853,0.89277113583943368,-199.23823868206557,-9.5363220060980622E-002,102.02257754659404,186.52981018739453,223.22854241604659,279.45564584241282,94.060935497395846,48.700333333333333,-10.658333333333360,1.3909237024857026,-11.744957394917776,0.42036277591644960
20220310200000,419.54653598478302,1.4190984830593190,1.2437299780837285,0,245.94445992706054,0,27.014863338642126,0,0.23398475875387745,2,227.71952120162041,3.7256597731768881,12.907480271229389,1.8144387560802302,1.5603751776454373,1.2094011190770750,0.99952536936677150,-338.33060364415678,-5.6158088554068480E-002,107.50623786814720,196.55569017895141,235.22696012046075,294.47624102429972,94.029641740885424,47.293666666666667,-10.153000000000020,1.4874884929956762,-11.181998219807895,0.39812876043397927
20220310203000,419.47714010077038,1.3766867398024476,1.1105363849604388,0,210.27486133274098,0,21.678172623553738,0,0.39379610697820377,1,227.58157737347639,3.9908860117873899,9.9376279780308163,1.8232238436367119,1.7488770658427033,1.1658567446293537,0.94514973214820541,-334.52902814598849,-5.6796266994529394E-002,105.86179184118572,193.54911837250543,231.62886155729890,289.97184858912885,94.006671621527786,44.767333333333333,-9.8453333333333148,1.5971476666336730,-10.965156707763640,0.38109082611406014
20220310210000,419.29692939737055,1.3263201569647252,1.2809936889177482,0,228.36199273981458,0,31.627439800265901,0,0.84109765761185107,0,218.47123471699160,3.9813444458558238,10.305190830556278,2.0200056951184919,1.8161313185371890,1.1679385665661310,1.0159561834207376,-382.47666826730875,-4.9676232764925436E-002,112.00022174522449,204.77212598889361,245.05993527797449,306.78595909822769,93.972313438585061,41.926666666666669,-9.4909999999999854,1.7268363690796900,-10.583624753316201,0.36070420381136520
20220310213000,419.22148589455207,1.2855338410616266,0.99209286348081871,0,149.66936319075904,0,28.084325678840084,0,0.70543919635326391,0,228.33738847979015,4.6029852526628288,11.919525883922185,1.9368050793335838,1.7045309984810488,1.1023296901140698,0.89431161822901684,-397.95801956349129,-4.7743729403519883E-002,105.92459061611514,193.66393456171841,231.76626721132294,290.14386416281889,93.942690788411454,40.445999999999998,-9.4350000000000023,1.7786821533592292,-10.525387619018545,0.28103777902295657
20220310220000,419.01858941249571,1.2578193192071412,1.0303312077172893,0,134.99622464225908,0,20.774381390629891,0,0.24457657457206547,2,228.54817711516466,4.0152895253328831,12.793475897585703,2.0188552966737587,1.6649307865223990,1.0807308991824796,0.91169649119646212,-467.35824650481527,-4.0654038186109638E-002,109.28512960369218,199.80807161994753,239.11923003552246,299.34890108440669,93.918023759982631,39.208666666666666,-9.3203333333333376,1.8320751355490887,-10.367241797553106,0.23536520744244852
20220310223000,418.99214034776077,1.2678959210002330,0.87358697024575149,0,75.259308319660576,0,15.901444488710533,0,0.36265822340488330,1,228.67563484159501,4.2589824130215499,11.597198653962383,1.7589791003541118,1.4567657175052218,1.0374091398313929,0.83947157722985466,-654.36958404921643,-2.9035579377679286E-002,105.70600046722804,193.26428205380049,231.28798523201999,289.54511187973594,93.901123344835071,39.700333333333333,-9.3796666666666511,1.8088045004366444,-10.420183188544343,0.18851926383511156